Location: Koszalin
(54.1903°N, 16.1817°E)
Time: 18:03:43
(UTC+02:00)

ISS - Visible Passes

Search period start: 20 September 2018 00:00
Search period end: 30 September 2018 00:00
Orbit: 403 x 408 km, 51.6° (Epoch: 20 September)

Date Brightness Start Highest point End Pass type
(mag) Time Alt. Az. Time Alt. Az. Time Alt. Az.
23 Sep -1.3 21:11:48 10° SW 21:12:18 13° SSW 21:12:18 13° SSW visible
24 Sep -2.3 20:20:24 10° SSW 20:22:51 21° SSE 20:22:51 21° SSE visible
25 Sep -1.8 19:29:19 10° S 19:31:18 15° SE 19:33:15 10° ESE visible
25 Sep -2.3 21:04:05 10° SW 21:05:57 27° SW 21:05:57 27° SW visible
26 Sep -2.9 20:12:26 10° SW 20:15:26 32° SSE 20:16:13 28° SE visible
26 Sep -1.0 21:48:23 10° WSW 21:48:54 14° WSW 21:48:54 14° WSW visible
27 Sep -2.4 19:20:56 10° SSW 19:23:39 24° SSE 19:26:23 10° E visible
27 Sep -3.0 20:56:32 10° WSW 20:59:04 42° SW 20:59:04 42° SW visible
28 Sep -3.3 20:04:44 10° WSW 20:07:53 44° SSE 20:09:10 28° ESE visible
28 Sep -1.2 21:40:56 10° W 21:41:51 17° W 21:41:51 17° W visible
29 Sep -2.9 19:13:00 10° SW 19:16:03 35° SSE 19:19:06 10° E visible
29 Sep -3.3 20:49:02 10° WSW 20:51:53 50° SSW 20:51:53 50° SSW visible
